TimePST,TemperatureF,Dew PointF,Humidity,Sea Level PressureIn,VisibilityMPH,Wind Direction,Wind SpeedMPH,Gust SpeedMPH,PrecipitationIn,Events,Conditions,WindDirDegrees,DateUTC
12:00 AM,38.8,34.0,83,29.94,-9999.0,ENE,32.2,38.0,N/A,,Unknown,60,2012-11-22 08:00:00
1:00 AM,38.8,34.0,83,29.93,-9999.0,ENE,33.4,39.1,N/A,,Unknown,60,2012-11-22 09:00:00
2:00 AM,38.5,33.6,83,29.91,-9999.0,ENE,34.5,42.6,N/A,,Unknown,60,2012-11-22 10:00:00
3:00 AM,38.5,33.4,82,29.90,-9999.0,NE,38.0,43.7,N/A,,Unknown,50,2012-11-22 11:00:00
4:00 AM,39,34,74,29.87,,ENE,38.0,,,,,60,2012-11-22 12:00:00
4:00 AM,39.2,33.6,80,29.87,-9999.0,ENE,38.0,44.9,N/A,,Unknown,60,2012-11-22 12:00:00
5:00 AM,39.7,33.6,79,29.83,-9999.0,ENE,36.8,44.9,N/A,,Unknown,60,2012-11-22 13:00:00
6:00 AM,40.1,33.8,78,29.81,-9999.0,ENE,38.0,48.3,N/A,,Unknown,60,2012-11-22 14:00:00
7:00 AM,41.2,34.3,77,29.76,-9999.0,ENE,32.2,42.6,N/A,,Unknown,60,2012-11-22 15:00:00
8:00 AM,41.2,33.8,75,29.71,-9999.0,ENE,34.5,42.6,N/A,,Unknown,60,2012-11-22 16:00:00
9:00 AM,41.9,33.3,71,29.70,-9999.0,East,27.6,36.8,N/A,,Unknown,80,2012-11-22 17:00:00
10:00 AM,44,37,68,29.64,,East,26.5,,,,,100,2012-11-22 18:00:00
10:00 AM,44.4,36.9,75,29.64,-9999.0,East,26.5,35.7,0.02,,Unknown,100,2012-11-22 18:00:00
11:00 AM,43.3,37.0,78,29.61,-9999.0,ESE,26.5,33.4,0.04,,Unknown,110,2012-11-22 19:00:00
12:00 PM,40.5,37.9,91,29.58,-9999.0,East,27.6,43.7,0.09,,Unknown,80,2012-11-22 20:00:00
1:00 PM,40.5,38.5,93,29.55,-9999.0,ENE,34.5,40.3,0.02,,Unknown,70,2012-11-22 21:00:00
2:00 PM,42.4,38.8,87,29.55,-9999.0,ENE,29.9,-,N/A,,Unknown,60,2012-11-22 22:00:00
3:00 PM,43.3,37.9,81,29.54,-9999.0,East,21.9,34.5,N/A,,Unknown,80,2012-11-22 23:00:00
4:00 PM,43,38,76,29.50,,East,25.3,,,,,80,2012-11-23 00:00:00
4:00 PM,42.6,37.9,83,29.50,-9999.0,East,25.3,36.8,N/A,,Unknown,80,2012-11-23 00:00:00
5:00 PM,42.3,37.9,85,29.49,-9999.0,East,20.7,26.5,0.02,,Unknown,90,2012-11-23 01:00:00
6:00 PM,42.6,38.7,86,29.46,-9999.0,ENE,27.6,-,0.01,,Unknown,70,2012-11-23 02:00:00
7:00 PM,45.0,41.4,87,29.44,-9999.0,SSE,28.8,-,0.02,,Unknown,150,2012-11-23 03:00:00
8:00 PM,44.4,41.4,89,29.46,-9999.0,SSE,38.0,48.3,0.07,,Unknown,150,2012-11-23 04:00:00
9:00 PM,45.5,40.3,82,29.51,-9999.0,SSE,33.4,-,N/A,,Unknown,160,2012-11-23 05:00:00
10:00 PM,45,40,76,29.52,,SE,24.2,,,,,140,2012-11-23 06:00:00
10:00 PM,45.3,39.9,81,29.52,-9999.0,SE,24.2,-,N/A,,Unknown,140,2012-11-23 06:00:00
11:00 PM,45.1,40.8,85,29.56,-9999.0,South,10.4,23.0,0.27,,Unknown,180,2012-11-23 07:00:00